Location: Chevoux
(46.3801°N, 4.9476°E)
Time: 13:05:49
(UTC+00:00)

Courier 1B Rocket - All Passes

Search period start: 13 May 2021 00:00
Search period end: 23 May 2021 00:00
Orbit: 920 x 1202 km, 28.3° (Epoch: 12 May)

Date Brightness Start Highest point End Pass type
(mag) Time Alt. Az. Time Alt. Az. Time Alt. Az.
13 May - 10:39:41 10° SSW 10:43:47 16° S 10:47:45 10° SE daylight
13 May - 12:32:14 10° SW 12:36:03 15° S 12:39:46 10° SSE daylight
14 May - 09:39:13 10° SSW 09:43:01 15° SSE 09:46:43 10° SE daylight
14 May - 11:31:00 10° SW 11:35:20 17° S 11:39:30 10° SE daylight
14 May - 13:25:35 10° SW 13:27:30 11° SSW 13:29:23 10° S daylight
15 May - 08:39:13 10° S 08:42:14 13° SSE 08:45:13 10° SE daylight
15 May - 10:30:01 10° SW 10:34:34 17° S 10:38:59 10° SE daylight
15 May - 12:23:22 10° SW 12:26:50 14° SSW 12:30:12 10° SSE daylight
16 May - 07:40:43 10° SSE 07:41:28 10° SSE 07:42:13 10° SSE daylight
16 May - 09:29:13 10° SSW 09:33:47 17° S 09:38:11 10° SE daylight
16 May - 11:21:50 10° SW 11:26:07 16° S 11:30:15 10° SSE daylight
17 May - 08:28:44 10° SSW 08:32:57 16° SSE 08:37:06 10° SE daylight
17 May - 10:20:36 10° SW 10:25:21 18° S 10:29:56 10° SE daylight
17 May - 12:14:59 10° SW 12:17:34 12° SSW 12:20:06 10° S daylight
18 May - 07:28:40 10° S 07:32:09 14° SSE 07:35:35 10° SE daylight
18 May - 09:19:35 10° SW 09:24:31 19° S 09:29:19 10° SE daylight
18 May - 11:12:56 10° SW 11:16:52 15° SSW 11:20:41 10° SSE daylight
19 May - 06:29:40 10° S 06:31:21 11° SSE 06:33:02 10° SE daylight
19 May - 08:18:49 10° SSW 08:23:41 18° S 08:28:27 10° SE daylight
19 May - 10:11:25 10° SW 10:16:05 17° S 10:20:37 10° SSE daylight
20 May - 07:18:21 10° SSW 07:22:50 16° SSE 07:27:16 10° SE daylight
20 May - 09:10:13 10° SW 09:15:16 19° S 09:20:11 10° SE daylight
20 May - 11:04:27 10° SW 11:07:34 13° SSW 11:10:36 10° S daylight
21 May - 06:18:19 10° SSW 06:22:01 14° SSE 06:25:41 10° SE daylight
21 May - 08:09:15 10° SW 08:14:24 19° S 08:19:28 10° SE daylight
21 May - 10:02:31 10° SW 10:06:48 16° SSW 10:10:59 10° SSE daylight
22 May - 05:19:18 10° S 05:21:12 11° SSE 05:23:07 10° SE daylight
22 May - 07:08:31 10° SSW 07:13:32 18° S 07:18:30 10° SE daylight
22 May - 09:01:04 10° SW 09:05:59 18° S 09:10:48 10° SSE daylight
22 May - 10:57:31 10° SSW 10:58:13 10° SSW 10:58:54 10° SSW daylight
